Flag for Tunisia Weather past 2 weeks in Houmt Souk (Djerba), Tunisia

Now
61 °F

Passing clouds.


Feels Like: 61 °F
Forecast: 65 / 77 °F
Wind: 5 mph from Southwest

Location: Djerba Mellita

Current Time: May 27, 2015 at 5:32:35 AM

Latest Report: May 27, 2015 at 5:00 AM


Visibility: 5 mi

Pressure: 29.95 "Hg

Humidity: 88%

Dew point: 57 °F

Location of Houmt Souk (Djerba)Location

Historic Weather in Houmt Souk (Djerba) — Graph

°F

Houmt Souk (Djerba) temperature yesterday

Maximum temperature yesterday: 75 °F (at 12:30 PM)
Minimum temperature yesterday: 64 °F (at 11:30 PM)
Average temperature yesterday: 70 °F

Past Weeks' High & Low Weather Summary

 TemperatureHumidityPressure
High100 °F (May 20, 1:00 PM)88% (May 13, 2:00 AM)30.24 "Hg (May 13, 2:00 AM)
Low63 °F (May 13, 2:00 AM)7% (May 15, 4:30 PM)29.74 "Hg (May 25, 4:30 PM)
Average74 °F51%29.96 "Hg
* Reported May 12 4:00 AM — May 27 4:00 AM, Houmt Souk (Djerba), Weather by CustomWeather, © 2015

Note: Actual official high and low records may vary slightly from our data, if they occured in-between our weather recording intervals... More about our weather records

Advertising

Houmt Souk (Djerba) weather history for previous 24 hours

 ConditionsComfort  
Time TempWeatherWind HumidityBarometerVisibility
4:00 AM
Wed, May 27
63 °FClear.6 mph88%29.95 "Hg5 mi
3:30 AM64 °FMild.6 mph83%29.92 "HgN/A
3:00 AM64 °FMild.6 mph83%29.92 "HgN/A
2:30 AM66 °FClear.3 mph83%29.95 "Hg5 mi
2:00 AM64 °FClear.No wind83%29.95 "Hg5 mi
1:00 AM64 °FClear.6 mph83%29.95 "Hg5 mi
12:30 AM64 °FClear.6 mph83%29.95 "Hg5 mi
12:00 AM64 °FClear.6 mph83%29.95 "Hg5 mi
11:30 PM
Tue, May 26
64 °FMild.5 mph83%29.95 "HgN/A
11:00 PM66 °FClear.5 mph78%29.95 "Hg5 mi
10:30 PM68 °FClear.5 mph78%29.95 "Hg5 mi
10:00 PM68 °FClear.7 mph78%29.95 "Hg5 mi
9:30 PM68 °FClear.7 mph78%29.95 "Hg5 mi
9:00 PM68 °FClear.9 mph78%29.95 "Hg5 mi
8:00 PM68 °FClear.13 mph78%29.92 "Hg5 mi
7:30 PM70 °FClear.13 mph73%29.89 "Hg5 mi
7:00 PM70 °FClear.15 mph69%29.89 "Hg5 mi
6:30 PM72 °FClear.13 mph65%29.86 "Hg5 mi
6:00 PM72 °FClear.16 mph65%29.86 "Hg5 mi
5:30 PM72 °FClear.17 mph61%29.86 "Hg5 mi
5:00 PM73 °FClear.20 mph53%29.83 "Hg5 mi
4:30 PM73 °FPassing clouds.21 mph61%29.86 "Hg5 mi
4:00 PM73 °FScattered clouds.22 mph57%29.83 "Hg5 mi
3:30 PM73 °FScattered clouds.20 mph61%29.83 "Hg5 mi
3:00 PM73 °FScattered clouds.22 mph61%29.83 "Hg5 mi
2:30 PM73 °FScattered clouds.20 mph61%29.83 "Hg5 mi
2:00 PM73 °FScattered clouds.21 mph61%29.83 "Hg5 mi
1:30 PM73 °FScattered clouds.21 mph61%29.86 "Hg5 mi
1:00 PM73 °FScattered clouds.22 mph57%29.86 "Hg5 mi
12:30 PM75 °FScattered clouds.21 mph54%29.86 "Hg5 mi
11:00 AM73 °FPassing clouds.22 mph57%29.86 "Hg5 mi
10:30 AM73 °FPassing clouds.23 mph61%29.83 "Hg5 mi
10:00 AM73 °FPassing clouds.22 mph53%29.83 "Hg5 mi
9:30 AM73 °FPassing clouds.23 mph57%29.83 "Hg5 mi
9:00 AM73 °FScattered clouds.22 mph65%29.83 "Hg5 mi
8:30 AM72 °FScattered clouds.21 mph69%29.83 "Hg5 mi
8:00 AM70 °FScattered clouds.22 mph73%29.80 "Hg5 mi
7:30 AM70 °FScattered clouds.21 mph73%29.80 "Hg5 mi
7:00 AM70 °FScattered clouds.20 mph73%29.77 "Hg5 mi
6:30 AM68 °FScattered clouds.18 mph78%29.77 "Hg5 mi
6:00 AM68 °FPassing clouds.18 mph78%29.74 "Hg5 mi
5:30 AM68 °FPassing clouds.16 mph78%29.74 "Hg5 mi
5:00 AM68 °FClear.16 mph73%29.74 "Hg5 mi
Weather by CustomWeather, © 2015

See weather overviewHow to use our weather pages